Location: Unspecified
(35.6961°N, 0.0000°E)
Time: 01:15:46
(UTC+00:00)

Explorer 11/Cluster Stage 4 - All Passes

Search period start: 22 May 2019 00:00
Search period end: 01 June 2019 00:00
Orbit: 467 x 1260 km, 28.8° (Epoch: 21 May)

Date Brightness Start Highest point End Pass type
(mag) Time Alt. Az. Time Alt. Az. Time Alt. Az.
22 May - 02:04:28 10° SSE 02:05:11 10° SSE 02:05:53 10° SSE visible
22 May - 03:49:36 10° SW 03:53:12 22° S 03:56:21 10° ESE visible
22 May - 05:37:34 10° WSW 05:41:05 29° S 05:44:17 10° ESE daylight
22 May - 07:26:07 10° WSW 07:28:49 19° SSW 07:31:31 10° SE daylight
23 May - 01:52:03 10° S 01:54:37 13° SSE 01:56:57 10° SE visible
23 May - 03:38:41 10° SW 03:42:41 26° S 03:46:07 10° ESE visible
23 May - 05:26:56 10° WSW 05:30:35 30° S 05:33:53 10° ESE daylight
23 May - 07:15:46 10° WSW 07:18:19 18° SSW 07:20:49 10° SSE daylight
24 May - 01:40:28 10° SSW 01:44:02 17° SSE 01:47:10 10° ESE visible
24 May - 03:27:46 10° SW 03:32:09 29° S 03:35:50 10° ESE visible
24 May - 05:16:18 10° WSW 05:20:06 30° S 05:23:27 10° ESE daylight
24 May - 07:05:26 10° WSW 07:07:48 16° SSW 07:10:04 10° SSE daylight
25 May - 01:29:05 10° SSW 01:33:25 20° SSE 01:37:10 10° ESE visible
25 May - 03:16:52 10° WSW 03:21:37 32° S 03:25:32 10° ESE visible
25 May - 05:05:37 10° WSW 05:09:36 30° S 05:13:02 10° SE daylight
25 May - 06:55:09 10° SW 06:57:15 14° SSW 06:59:16 10° SSE daylight
25 May - 23:33:54 10° SSE 23:34:27 10° SSE 23:35:00 10° SSE night (unlit)
26 May - 01:17:49 10° SW 01:22:49 24° SSE 01:27:02 10° ESE visible
26 May - 03:05:59 10° WSW 03:11:04 35° S 03:15:13 10° ESE visible
26 May - 04:54:56 10° WSW 04:59:04 30° S 05:02:36 10° SE daylight
26 May - 06:44:54 10° SW 06:46:41 13° SSW 06:48:23 10° S daylight
26 May - 23:20:42 10° S 23:23:45 13° SSE 23:26:37 10° SE night (unlit)
27 May - 01:06:38 10° SW 01:12:10 28° SSE 01:16:49 10° ESE visible
27 May - 02:55:05 10° WSW 03:00:30 38° S 03:04:52 10° ESE visible
27 May - 04:44:15 10° WSW 04:48:32 29° SSW 04:52:09 10° SE daylight
27 May - 06:34:50 10° SW 06:36:06 11° SSW 06:37:19 10° S daylight
27 May - 23:08:46 10° S 23:13:02 16° SSE 23:16:56 10° ESE night (unlit)
28 May - 00:55:30 10° SW 01:01:31 31° SSE 01:06:31 10° ESE visible
28 May - 02:44:12 10° WSW 02:49:54 40° S 02:54:30 10° ESE visible
28 May - 04:33:32 10° WSW 04:37:58 29° SSW 04:41:41 10° SE daylight
28 May - 22:57:10 10° SSW 23:02:17 19° SSE 23:06:57 10° ESE night (unlit)
29 May - 00:44:24 10° SW 00:50:50 35° SSE 00:56:10 10° ESE visible
29 May - 02:33:19 10° WSW 02:39:18 42° S 02:44:06 10° ESE visible
29 May - 04:22:49 10° WSW 04:27:22 28° SSW 04:31:11 10° SE daylight
29 May - 22:45:43 10° SSW 22:51:31 23° SSE 22:56:46 10° ESE night (unlit)
30 May - 00:33:21 10° SW 00:40:08 39° S 00:45:47 10° ESE visible
30 May - 02:22:26 10° WSW 02:28:40 43° S 02:33:41 10° ESE visible
30 May - 04:12:05 10° WSW 04:16:45 27° SSW 04:20:40 10° SE visible
30 May - 22:34:24 10° SSW 22:40:44 26° SSE 22:46:29 10° ESE night (unlit)
31 May - 00:22:20 10° WSW 00:29:25 42° S 00:35:22 10° ESE visible
31 May - 02:11:32 10° WSW 02:18:01 44° S 02:23:15 10° ESE visible
31 May - 04:01:21 10° WSW 04:06:06 25° SSW 04:10:06 10° SE visible
31 May - 20:38:36 10° S 20:41:25 12° SSE 20:44:12 10° SE visible
31 May - 22:23:10 10° SW 22:29:55 29° SSE 22:36:05 10° ESE visible
